Location: Tamazert
(32.6352°N, 5.2072°W)
Time: 15:37:15
(UTC+00:00)

Courier 1B - Visible Passes

Search period start: 03 October 2022 00:00
Search period end: 13 October 2022 00:00
Orbit: 962 x 1209 km, 28.3° (Epoch: 02 October)

Date Brightness Start Highest point End Pass type
(mag) Time Alt. Az. Time Alt. Az. Time Alt. Az.
03 Oct 8.6 18:42:08 10° W 18:48:23 38° SSW 18:54:23 10° SE visible
03 Oct 9.6 20:38:16 10° WSW 20:41:41 15° SSW 20:42:02 14° SSW visible
04 Oct 9.4 19:43:24 10° WSW 19:48:07 20° SSW 19:51:53 13° SSE visible
05 Oct 9.2 18:48:56 10° W 18:54:31 26° SSW 18:59:53 10° SSE visible
06 Oct 9.9 19:52:12 10° SW 19:54:08 11° SSW 19:56:01 10° SSW visible
07 Oct 9.8 18:56:27 10° WSW 19:00:33 16° SSW 19:04:33 10° S visible
10 Oct 10.1 18:09:46 10° WSW 18:12:56 13° SSW 18:16:02 10° S visible
